Find RAPTOR 3

NORAD ID: 58958 Int'l Des: 2024-028 Owner: SDA Country: US operational
LEOCIRCULAR

当前视图

正在加载3D地球...

关于 RAPTOR 3

正在加载描述...

即将过境

Passes for default location (London). Set your location on the main map for personalized predictions.

高度历史

Loading altitude history...

两行轨道根数

1 58958U 24028D 26145.36398324 -.00000042 00000-0 40289-4 0 9991
2 58958 39.9890 148.2220 0010694 126.1263 234.0475 13.70485338113939
Epoch: May 25, 2026 • Age: 21 hours

当前状态

高度 997.2 km
速度 7.36 km/s
星下点 27.48°N, 150.79°W
发射日期 Feb 14, 2024
运行时间 2.2 years
类型 other

技术详情

分类 Payload
质量 1000.00 kg
干质量 1000.00 kg
总质量 1000.00 kg
长度 1.00 m
直径 0.60 m
跨度 2.00 m
形状 Box + panels
制造商 HARRL3
平台类型 TPL0-L3H
阶段状态 In Orbit
所有者/国家 SDA/US

Most Searched